Fairfield, CA

1:58 AM PDT on April 27, 2018 (GMT -0700)
Travis Air Force Base

Weather History for KSUU - September, 2013

Change the Weather History Date:

Monday, September 2, 2013

  Actual Average Record
Temperature  
Mean Temperature 75 °F -  
Max Temperature 86 °F 85 °F 109 °F (2017)
Min Temperature 64 °F 56 °F 50 °F (2012)
Cooling Degree Days 10    
Growing Degree Days 25 (Base 50)    
Moisture  
Dew Point 60 °F    
Average Humidity 69    
Maximum Humidity 88    
Minimum Humidity 40    
Precipitation  
Precipitation 0.00 in - - ()
Sea Level Pressure  
Sea Level Pressure 29.89 in    
Wind  
Wind Speed 20 mph (SW)    
Max Wind Speed 22 mph    
Max Gust Speed 30 mph    
Visibility 10 miles    
Events      
Averages and records for this station are not official NWS values.
T = Trace of Precipitation, MM = Missing Value Source: NWS Daily Summary

Daily Weather History Graph

Daily Weather History Graph

Search for Another Location

Airport or City:

Astronomy

Sep. 02, 2013 Rise Set
Actual Time 6:38 AM PDT 7:35 PM PDT
Civil Twilight 6:11 AM PDT 8:02 PM PDT
Nautical Twilight 5:39 AM PDT 8:34 PM PDT
Astronomical Twilight 5:06 AM PDT 9:07 PM PDT
Moon 4:01 AM PDT (9/2) 5:51 PM PDT (9/2)
Length of Visible Light 13h 50m
Length of Day
12h 56m
Waning Crescent, 7% of the Moon is Illuminated
Sep 2
Waning Crescent
Sep 5
New
Sep 12
First Quarter
Sep 19
Full
Sep 26
Last Quarter

Hourly Weather History & Observations

Time (PDT) Temp. Heat Index Dew Point Humidity Pressure Visibility Wind Dir Wind Speed Gust Speed Precip Events Conditions
12:58 AM 68.0 °F - 60.8 °F 78% 29.88 in 10.0 mi SW 20.7 mph 28.8 mph N/A   Clear
1:58 AM 68.0 °F - 60.8 °F 78% 29.88 in 10.0 mi SW 21.9 mph - N/A   Scattered Clouds
2:58 AM 68.0 °F - 60.8 °F 78% 29.87 in 10.0 mi SW 21.9 mph 29.9 mph N/A   Mostly Cloudy
3:58 AM 68.0 °F - 60.8 °F 78% 29.87 in 10.0 mi WSW 21.9 mph - N/A   Mostly Cloudy
4:58 AM 68.0 °F - 60.8 °F 78% 29.88 in 10.0 mi WSW 21.9 mph - N/A   Clear
5:58 AM 68.0 °F - 60.8 °F 78% 29.88 in 10.0 mi SW 16.1 mph - N/A   Partly Cloudy
6:58 AM 68.0 °F - 60.8 °F 78% 29.88 in 10.0 mi SW 20.7 mph - N/A   Clear
7:58 AM 66.2 °F - 60.8 °F 83% 29.87 in 10.0 mi SW 20.7 mph - N/A   Clear
8:58 AM 66.2 °F - 60.8 °F 83% 29.87 in 10.0 mi SW 19.6 mph 27.6 mph N/A   Clear
9:58 AM 66.2 °F - 62.6 °F 88% 29.88 in 10.0 mi SW 20.7 mph - N/A   Partly Cloudy
10:58 AM 66.2 °F - 60.8 °F 83% 29.88 in 10.0 mi SW 20.7 mph - N/A   Clear
11:58 AM 64.4 °F - 60.8 °F 88% 29.90 in 10.0 mi SW 20.7 mph - N/A   Clear
12:58 PM 64.4 °F - 60.8 °F 88% 29.91 in 10.0 mi SW 20.7 mph - N/A   Clear
1:58 PM 66.2 °F - 60.8 °F 83% 29.92 in 10.0 mi SW 20.7 mph - N/A   Clear
2:58 PM 68.0 °F - 60.8 °F 78% 29.92 in 10.0 mi SW 21.9 mph - N/A   Clear
3:58 PM 71.6 °F - 60.8 °F 69% 29.93 in 10.0 mi SW 20.7 mph 25.3 mph N/A   Partly Cloudy
4:58 PM 77.0 °F - 60.8 °F 57% 29.92 in 10.0 mi SW 20.7 mph - N/A   Partly Cloudy
5:58 PM 77.9 °F - 59.9 °F 54% 29.92 in 10.0 mi SSW 16.1 mph - N/A   Clear
6:58 PM 80.6 °F 81.1 °F 59.0 °F 48% 29.91 in 10.0 mi SW 13.8 mph - N/A   Scattered Clouds
7:58 PM 86.0 °F 85.4 °F 59.0 °F 40% 29.90 in 10.0 mi SW 16.1 mph - N/A   Clear
8:58 PM 84.2 °F 83.5 °F 57.2 °F 40% 29.89 in 10.0 mi SW 11.5 mph 19.6 mph N/A   Scattered Clouds
9:58 PM 84.2 °F 83.5 °F 57.2 °F 40% 29.88 in 10.0 mi WSW 17.3 mph 23.0 mph N/A   Partly Cloudy
10:58 PM 82.6 °F 82.3 °F 58.1 °F 43% 29.87 in 10.0 mi WSW 16.1 mph - N/A   Clear
11:58 PM 82.4 °F 82.5 °F 59.0 °F 45% 29.86 in 10.0 mi WSW 18.4 mph - N/A   Clear